When you browse on this site, cookies collect data to enhance your experience and personalize the content and advertising you see.
Visit our Privacy Policy to learn more. By continuing to use the site, you agree to this use of cookies and data.
  • In Italy
  • List of Countries
  • For 7 days
  • Water Temperature
  • Satellite Maps
  • Weather Map
  • Weather Widgets
  • user-avatar
    Login

    Hourly Weather Kaprun

    Today, 10 December, Monday

    Time Temperature Precipitation Wind Pressure Humidity
    00:00 -6°C° 1.9 mm 2 mps 590 mmHg 95%
    01:00 -6°C° 0 mm 2 mps 590 mmHg 95%
    02:00 -7°C° 1.4 mm 3 mps 590 mmHg 95%
    03:00 -7°C° 1.4 mm 3 mps 590 mmHg 94%
    04:00 -7°C° 1.4 mm 3 mps 591 mmHg 93%
    05:00 -8°C° 1 mm 3 mps 591 mmHg 93%
    06:00 -8°C° 1 mm 3 mps 591 mmHg 92%
    07:00 -9°C° 1 mm 3 mps 591 mmHg 92%
    08:00 -9°C° 0.8 mm 3 mps 592 mmHg 90%
    09:00 -10°C° 0.8 mm 4 mps 592 mmHg 89%
    10:00 -10°C° 0.8 mm 4 mps 592 mmHg 87%
    11:00 -10°C° 0.9 mm 4 mps 592 mmHg 87%
    12:00 -10°C° 0.9 mm 4 mps 592 mmHg 87%
    13:00 -10°C° 0.9 mm 4 mps 593 mmHg 87%
    14:00 -9°C° 0.6 mm 3 mps 593 mmHg 88%
    15:00 -9°C° 0.6 mm 3 mps 592 mmHg 89%
    16:00 -10°C° 0.6 mm 3 mps 592 mmHg 90%
    17:00 -9°C° 0.6 mm 2 mps 592 mmHg 91%
    18:00 -9°C° 0.6 mm 2 mps 592 mmHg 92%
    19:00 -9°C° 0.6 mm 2 mps 592 mmHg 93%
    20:00 -9°C° 1.2 mm 2 mps 592 mmHg 93%
    21:00 -9°C° 1.2 mm 2 mps 592 mmHg 94%
    22:00 -9°C° 1.2 mm 2 mps 592 mmHg 94%
    23:00 -9°C° 1.6 mm 2 mps 592 mmHg 95%

    Tomorrow, 11 December, Tuesday

    Time Temperature Precipitation Wind Pressure Humidity
    00:00 -10°C° 1.6 mm 3 mps 592 mmHg 95%
    01:00 -12°C° 1.6 mm 3 mps 592 mmHg 96%
    02:00 -12°C° 0.5 mm 3 mps 592 mmHg 95%
    03:00 -12°C° 0.5 mm 3 mps 592 mmHg 94%
    04:00 -12°C° 0.5 mm 2 mps 592 mmHg 93%
    05:00 -12°C° 0.4 mm 2 mps 592 mmHg 93%
    06:00 -13°C° 0.4 mm 3 mps 592 mmHg 93%
    07:00 -14°C° 0.4 mm 3 mps 592 mmHg 93%
    08:00 -13°C° 0.4 mm 3 mps 592 mmHg 91%
    09:00 -13°C° 0.4 mm 3 mps 592 mmHg 90%
    10:00 -13°C° 0.4 mm 3 mps 593 mmHg 88%
    11:00 -12°C° 0.4 mm 3 mps 593 mmHg 86%
    12:00 -12°C° 0.4 mm 3 mps 593 mmHg 84%
    13:00 -10°C° 0.4 mm 3 mps 593 mmHg 82%
    14:00 -12°C° 0.2 mm 3 mps 593 mmHg 85%
    15:00 -12°C° 0.2 mm 2 mps 592 mmHg 87%
    16:00 -12°C° 0.2 mm 2 mps 592 mmHg 89%
    17:00 -13°C° 0.1 mm 2 mps 592 mmHg 90%
    18:00 -14°C° 0.1 mm 2 mps 592 mmHg 90%
    19:00 -15°C° 0.1 mm 2 mps 592 mmHg 91%
    20:00 -15°C° 0.1 mm 2 mps 592 mmHg 90%
    21:00 -16°C° 0.1 mm 2 mps 591 mmHg 89%
    22:00 -16°C° 0.1 mm 2 mps 591 mmHg 89%
    23:00 -16°C° 0 mm 2 mps 591 mmHg 88%

    Day after tomorrow, 12 December, Wednesday

    Time Temperature Precipitation Wind Pressure Humidity
    00:00 -17°C° 0 mm 2 mps 591 mmHg 87%
    01:00 -17°C° 0 mm 2 mps 591 mmHg 86%
    02:00 -17°C° 0 mm 2 mps 590 mmHg 86%
    03:00 -17°C° 0 mm 2 mps 590 mmHg 85%
    04:00 -17°C° 0 mm 2 mps 590 mmHg 84%
    05:00 -17°C° 0 mm 2 mps 590 mmHg 84%
    06:00 -17°C° 0 mm 2 mps 590 mmHg 84%
    07:00 -17°C° 0 mm 2 mps 590 mmHg 84%
    08:00 -16°C° 0 mm 2 mps 591 mmHg 84%
    09:00 -14°C° 0 mm 2 mps 592 mmHg 83%
    10:00 -11°C° 0 mm 1 mps 592 mmHg 82%
    11:00 -10°C° 0 mm 1 mps 592 mmHg 80%
    12:00 -9°C° 0 mm 1 mps 592 mmHg 78%
    13:00 -8°C° 0 mm 1 mps 593 mmHg 76%
    14:00 -9°C° 0 mm 1 mps 592 mmHg 81%
    15:00 -10°C° 0 mm 1 mps 591 mmHg 85%
    16:00 -12°C° 0 mm 0 mps 590 mmHg 90%
    17:00 -13°C° 0 mm 1 mps 590 mmHg 90%
    18:00 -14°C° 0 mm 1 mps 589 mmHg 90%
    19:00 -15°C° 0 mm 1 mps 589 mmHg 91%
    20:00 -15°C° 0 mm 1 mps 589 mmHg 89%
    21:00 -16°C° 0 mm 1 mps 589 mmHg 87%
    22:00 -16°C° 0 mm 1 mps 589 mmHg 85%
    23:00 -16°C° 0 mm 1 mps 588 mmHg 84%

    13 December, Thursday

    Time Temperature Precipitation Wind Pressure Humidity
    00:00 -16°C° 0 mm 1 mps 588 mmHg 83%
    01:00 -16°C° 0 mm 1 mps 588 mmHg 82%
    02:00 -16°C° 0 mm 1 mps 588 mmHg 81%
    03:00 -16°C° 0 mm 1 mps 588 mmHg 80%
    04:00 -17°C° 0 mm 1 mps 587 mmHg 79%
    05:00 -17°C° 0 mm 1 mps 587 mmHg 77%
    06:00 -17°C° 0 mm 1 mps 587 mmHg 75%
    07:00 -17°C° 0 mm 1 mps 587 mmHg 73%
    08:00 -15°C° 0 mm 1 mps 588 mmHg 73%
    09:00 -13°C° 0 mm 1 mps 588 mmHg 73%
    10:00 -12°C° 0 mm 1 mps 589 mmHg 73%
    11:00 -12°C° 0 mm 2 mps 589 mmHg 73%
    12:00 -10°C° 0 mm 2 mps 590 mmHg 73%
    13:00 -8°C° 0 mm 2 mps 590 mmHg 73%
    14:00 -9°C° 0 mm 2 mps 589 mmHg 76%
    15:00 -12°C° 0 mm 2 mps 588 mmHg 78%
    16:00 -11°C° 0 mm 1 mps 587 mmHg 81%
    17:00 -14°C° 0 mm 2 mps 587 mmHg 80%
    18:00 -14°C° 0 mm 2 mps 587 mmHg 79%
    19:00 -15°C° 0 mm 2 mps 587 mmHg 78%
    20:00 -14°C° 0 mm 2 mps 588 mmHg 78%
    21:00 -14°C° 0 mm 2 mps 588 mmHg 77%
    22:00 -14°C° 0 mm 2 mps 588 mmHg 77%
    23:00 -14°C° 0 mm 2 mps 588 mmHg 77%

    14 December, Friday

    Time Temperature Precipitation Wind Pressure Humidity
    00:00 -13°C° 0 mm 2 mps 589 mmHg 78%
    01:00 -13°C° 0 mm 2 mps 589 mmHg 78%
    02:00 -13°C° 0 mm 2 mps 589 mmHg 79%
    03:00 -12°C° 0 mm 2 mps 589 mmHg 79%
    04:00 -10°C° 0 mm 1 mps 589 mmHg 80%
    05:00 -10°C° 0 mm 1 mps 590 mmHg 81%
    06:00 -9°C° 0 mm 1 mps 590 mmHg 82%
    07:00 -9°C° 0 mm 1 mps 591 mmHg 82%
    08:00 -8°C° 0 mm 1 mps 592 mmHg 83%
    09:00 -7°C° 0 mm 1 mps 593 mmHg 84%
    10:00 -6°C° 0 mm 1 mps 593 mmHg 85%
    11:00 -4°C° 0 mm 1 mps 594 mmHg 86%
    12:00 -3°C° 0 mm 1 mps 594 mmHg 88%
    13:00 -3°C° 0 mm 1 mps 594 mmHg 90%
    14:00 -3°C° 0.1 mm 1 mps 595 mmHg 91%
    15:00 -4°C° 0.1 mm 1 mps 595 mmHg 92%
    16:00 -4°C° 0.1 mm 1 mps 595 mmHg 94%
    17:00 -6°C° 0.1 mm 1 mps 595 mmHg 94%
    18:00 -6°C° 0.1 mm 1 mps 595 mmHg 94%
    19:00 -7°C° 0.1 mm 1 mps 596 mmHg 94%
    20:00 -7°C° 0 mm 1 mps 596 mmHg 92%
    21:00 -8°C° 0 mm 1 mps 596 mmHg 91%
    22:00 -9°C° 0 mm 1 mps 596 mmHg 90%
    23:00 -10°C° 0 mm 2 mps 596 mmHg 89%

    15 December, Saturday

    Time Temperature Precipitation Wind Pressure Humidity
    00:00 -10°C° 0 mm 2 mps 596 mmHg 88%
    01:00 -12°C° 0 mm 2 mps 596 mmHg 87%
    02:00 -12°C° 0 mm 2 mps 596 mmHg 87%
    03:00 -12°C° 0 mm 2 mps 596 mmHg 87%
    04:00 -12°C° 0 mm 2 mps 597 mmHg 87%
    05:00 -12°C° 0 mm 2 mps 597 mmHg 86%
    06:00 -12°C° 0 mm 2 mps 597 mmHg 86%
    07:00 -12°C° 0 mm 2 mps 598 mmHg 85%
    08:00 -10°C° 0 mm 2 mps 598 mmHg 85%
    09:00 -8°C° 0 mm 1 mps 599 mmHg 84%
    10:00 -6°C° 0 mm 1 mps 600 mmHg 84%
    11:00 -4°C° 0 mm 1 mps 600 mmHg 84%
    12:00 -3°C° 0 mm 1 mps 600 mmHg 84%
    13:00 -2°C° 0 mm 0 mps 600 mmHg 84%
    14:00 -4°C° 0 mm 0 mps 600 mmHg 84%
    15:00 -4°C° 0 mm 1 mps 599 mmHg 83%
    16:00 -6°C° 0 mm 1 mps 599 mmHg 83%
    17:00 -6°C° 0 mm 1 mps 599 mmHg 80%
    18:00 -7°C° 0 mm 1 mps 599 mmHg 77%
    19:00 -8°C° 0 mm 1 mps 599 mmHg 75%
    20:00 -8°C° 0 mm 1 mps 599 mmHg 71%
    21:00 -8°C° 0 mm 1 mps 599 mmHg 68%
    22:00 -8°C° 0 mm 1 mps 599 mmHg 64%
    23:00 -8°C° 0 mm 1 mps 599 mmHg 63%
    Show more